Location: Peebles
(55.6412°N, 3.1714°W)
Time: 08:19:39
(UTC+01:00)

Cosmos 2322 - Visible Passes

Search period start: 26 June 2022 00:00
Search period end: 06 July 2022 00:00
Orbit: 840 x 855 km, 71.0° (Epoch: 25 June)

Date Brightness Start Highest point End Pass type
(mag) Time Alt. Az. Time Alt. Az. Time Alt. Az.
26 Jun 5.8 01:29:42 10° NNW 01:34:38 29° NNE 01:39:32 10° E visible
26 Jun 3.9 03:13:53 10° NW 03:19:38 84° NE 03:25:20 10° SE visible
26 Jun 6.4 23:31:25 10° NW 23:35:11 18° N 23:38:56 10° NE visible
27 Jun 5.8 01:16:24 10° NNW 01:21:19 28° NNE 01:26:11 10° E visible
27 Jun 3.9 03:00:35 10° NNW 03:06:20 83° NE 03:12:01 10° SE visible
27 Jun 6.4 23:18:06 10° NW 23:21:51 17° N 23:25:36 10° NE visible
28 Jun 5.8 01:03:06 10° NNW 01:07:59 28° NNE 01:12:52 10° E visible
28 Jun 3.9 02:47:17 10° NNW 02:53:01 82° NE 02:58:43 10° SE visible
28 Jun 6.4 23:04:46 10° NW 23:08:31 17° N 23:12:16 10° NE visible
29 Jun 5.8 00:49:47 10° NNW 00:54:40 28° NNE 00:59:31 10° E visible
29 Jun 3.9 02:33:58 10° NNW 02:39:43 81° NE 02:45:24 10° SE visible
29 Jun 6.3 22:51:27 10° NW 22:55:11 17° N 22:58:56 10° NE visible
30 Jun 5.7 00:36:29 10° NNW 00:41:21 28° NNE 00:46:11 10° E visible
30 Jun 3.9 02:20:40 10° NNW 02:26:24 80° NE 02:32:05 10° SE visible
01 Jul 5.7 00:23:11 10° NNW 00:28:02 27° NNE 00:32:51 10° E visible
01 Jul 3.9 02:07:22 10° NNW 02:13:06 79° NE 02:18:47 10° SE visible
02 Jul 5.7 00:09:52 10° NNW 00:14:43 27° NNE 00:19:31 10° E visible
02 Jul 3.9 01:54:03 10° NNW 01:59:47 78° NE 02:05:28 10° SE visible
02 Jul 5.7 23:56:34 10° NNW 00:01:23 27° NNE 00:06:10 10° E visible
03 Jul 3.9 01:40:45 10° NNW 01:46:29 77° NE 01:52:10 10° SE visible
03 Jul 4.8 03:25:32 10° NW 03:30:10 26° WSW 03:34:46 10° SSW visible
03 Jul 5.6 23:43:16 10° NNW 23:48:04 27° NNE 23:52:50 10° E visible
04 Jul 3.9 01:27:27 10° NNW 01:33:11 76° NE 01:38:51 10° SE visible
04 Jul 4.8 03:12:13 10° NW 03:16:52 27° WSW 03:21:30 10° SSW visible
04 Jul 5.6 23:29:57 10° NNW 23:34:45 27° NNE 23:39:30 10° E visible
05 Jul 3.9 01:14:09 10° NNW 01:19:52 75° NE 01:25:32 10° SE visible
05 Jul 4.8 02:58:53 10° NW 03:03:35 27° WSW 03:08:15 10° SSW visible
05 Jul 5.6 23:16:39 10° NNW 23:21:25 26° NNE 23:26:10 10° E visible
